Location: Nitra
(0.0000°N, 18.0833°E)
Time: 06:04:32
(UTC+01:00)

Delta 168 - Pass Details

Date: 24 January 2021
Orbit: 394 x 2047 km, 25.3° (Epoch: 04 March)

Event Time Altitude Azimuth Distance (km) Brightness Sun altitude
Rises 19:44:58 0° 287° (WNW) 2,268 6.7 -24.7°
Reaches altitude 10° 19:46:57 10° 281° (W) 1,442 5.7 -25.2°
Enters shadow 19:48:54 32° 257° (WSW) 747 4.0 -25.7°
